Doylestown, PA

12:46 AM EDT on April 23, 2018 (GMT -0400)
Doylestown

Weather History for KDYL - March, 2013

Change the Weather History Date:

Friday, March 8, 2013

  Actual Average (KTTN) Record (KTTN)
Temperature  
Mean Temperature 34 °F -  
Max Temperature 41 °F 43 °F 78 °F (2000)
Min Temperature 28 °F 28 °F 11 °F (2007)
Degree Days  
Heating Degree Days 30    
Moisture  
Dew Point 27 °F    
Average Humidity 85    
Maximum Humidity 93    
Minimum Humidity 59    
Precipitation  
Precipitation 0.26 in - - ()
Sea Level Pressure  
Sea Level Pressure 30.07 in    
Wind  
Wind Speed 11 mph (NNW)    
Max Wind Speed 16 mph    
Max Gust Speed 25 mph    
Visibility 4 miles    
Events Fog , Snow    
Averages and records for this station are not official NWS values.
T = Trace of Precipitation, MM = Missing Value Source: NWS Daily Summary

Daily Weather History Graph

Daily Weather History Graph

Search for Another Location

Airport or City:

Astronomy

Mar. 08, 2013 Rise Set
Actual Time 6:22 AM EST 6:00 PM EST
Civil Twilight 5:55 AM EST 6:27 PM EST
Nautical Twilight 5:24 AM EST 6:58 PM EST
Astronomical Twilight 4:52 AM EST 7:30 PM EST
Moon 4:05 AM EST (3/8) 2:52 PM EST (3/8)
Length of Visible Light 12h 31m
Length of Day
11h 37m
Waning Crescent, 12% of the Moon is Illuminated
Mar 8
Waning Crescent
Mar 11
New
Mar 19
First Quarter
Mar 27
Full
Apr 3
Last Quarter

Hourly Weather History & Observations

Time (EST) Temp. Windchill Dew Point Humidity Pressure Visibility Wind Dir Wind Speed Gust Speed Precip Events Conditions
12:54 AM 33.1 °F 24.9 °F 26.1 °F 75% 30.09 in 8.0 mi North 10.4 mph - 0.00 in Snow Light Snow
1:27 AM 30.2 °F 20.8 °F 26.6 °F 86% 30.08 in 3.0 mi NNW 11.5 mph 18.4 mph 0.00 in Snow Light Snow
1:54 AM 30.0 °F 21.1 °F 27.0 °F 88% 30.09 in 4.0 mi NNW 10.4 mph - 0.00 in Snow Light Snow
2:31 AM 30.2 °F 21.3 °F 26.6 °F 86% 30.05 in 2.5 mi NW 10.4 mph 20.7 mph 0.00 in Snow Light Snow
2:54 AM 30.0 °F 19.5 °F 27.0 °F 88% 30.06 in 4.0 mi NW 13.8 mph 19.6 mph 0.00 in Snow Light Snow
3:13 AM 28.4 °F 19.7 °F 26.6 °F 93% 30.04 in 2.5 mi NW 9.2 mph 18.4 mph 0.00 in Snow Light Snow
3:27 AM 28.4 °F 19.1 °F 26.6 °F 93% 30.04 in 3.0 mi NW 10.4 mph 18.4 mph 0.00 in Snow Light Snow
3:39 AM 28.4 °F 19.7 °F 26.6 °F 93% 30.04 in 2.0 mi NW 9.2 mph 17.3 mph 0.00 in Snow Light Snow
3:54 AM 28.9 °F 19.2 °F 27.0 °F 92% 30.06 in 2.5 mi NW 11.5 mph 19.6 mph 0.00 in Snow Light Snow
4:09 AM 28.4 °F 18.5 °F 26.6 °F 93% 30.04 in 3.0 mi NW 11.5 mph 19.6 mph 0.00 in Snow Light Snow
4:42 AM 28.4 °F 18.5 °F 26.6 °F 93% 30.03 in 3.0 mi NW 11.5 mph 21.9 mph 0.00 in Snow Light Snow
4:50 AM 28.4 °F 18.0 °F 26.6 °F 93% 30.03 in 3.0 mi NW 12.7 mph 21.9 mph 0.00 in Snow Light Snow
4:54 AM 28.9 °F 18.6 °F 26.1 °F 89% 30.05 in 3.0 mi NW 12.7 mph 21.9 mph 0.00 in Snow Light Snow
5:02 AM 28.4 °F 18.5 °F 26.6 °F 93% 30.03 in 2.5 mi NW 11.5 mph 20.7 mph 0.00 in Snow Light Snow
5:09 AM 28.4 °F 18.5 °F 26.6 °F 93% 30.03 in 4.0 mi NW 11.5 mph 18.4 mph 0.00 in Snow Light Snow
5:30 AM 28.4 °F 18.0 °F 26.6 °F 93% 30.03 in 2.0 mi NNW 12.7 mph 18.4 mph 0.00 in Snow Light Snow
5:39 AM 28.4 °F 18.0 °F 26.6 °F 93% 30.03 in 1.8 mi NNW 12.7 mph 20.7 mph 0.00 in Snow Light Snow
5:54 AM 28.9 °F 21.1 °F 26.1 °F 89% 30.05 in 1.8 mi NNW 8.1 mph 21.9 mph 0.00 in Snow Light Snow
5:59 AM 28.4 °F 19.1 °F 26.6 °F 93% 30.03 in 2.0 mi NW 10.4 mph 23.0 mph 0.00 in Snow Light Snow
6:12 AM 28.4 °F 18.5 °F 26.6 °F 93% 30.03 in 3.0 mi NNW 11.5 mph 19.6 mph 0.00 in Snow Light Snow
6:30 AM 28.4 °F 19.1 °F 26.6 °F 93% 30.04 in 1.8 mi NNW 10.4 mph 24.2 mph 0.00 in Snow Light Snow
6:51 AM 28.4 °F 17.5 °F 26.6 °F 93% 30.04 in 1.0 mi NNW 13.8 mph 19.6 mph 0.00 in Snow Light Snow
6:54 AM 28.0 °F 20.0 °F 26.1 °F 92% 30.07 in 1.0 mi NNW 8.1 mph 19.6 mph 0.00 in Snow Light Snow
7:01 AM 28.4 °F 19.1 °F 26.6 °F 93% 30.04 in 0.8 mi NW 10.4 mph - 0.00 in Snow Light Snow
7:10 AM 28.4 °F 18.5 °F 26.6 °F 93% 30.04 in 1.5 mi NW 11.5 mph 18.4 mph 0.00 in Snow Light Snow
7:18 AM 28.4 °F 19.1 °F 26.6 °F 93% 30.04 in 2.0 mi NW 10.4 mph 19.6 mph 0.00 in Snow Light Snow
7:44 AM 28.4 °F 17.0 °F 26.6 °F 93% 30.05 in 3.0 mi NNW 15.0 mph 21.9 mph 0.00 in Snow Light Snow
7:54 AM 28.9 °F 18.6 °F 26.1 °F 89% 30.07 in 2.5 mi NW 12.7 mph 21.9 mph 0.00 in Snow Light Snow
8:10 AM 28.4 °F 19.1 °F 26.6 °F 93% 30.05 in 1.2 mi NNW 10.4 mph 25.3 mph 0.00 in Snow Light Snow
8:54 AM 28.9 °F 18.6 °F 27.0 °F 92% 30.07 in 1.0 mi NNW 12.7 mph 20.7 mph 0.00 in Snow Light Snow
9:12 AM 28.4 °F 18.0 °F 26.6 °F 93% 30.05 in 0.5 mi NNW 12.7 mph 21.9 mph 0.00 in Fog , Snow Snow
9:23 AM 30.2 °F 20.2 °F 26.6 °F 86% 30.05 in 1.0 mi NNW 12.7 mph 21.9 mph 0.00 in Snow Light Snow
9:31 AM 30.2 °F 20.8 °F 26.6 °F 86% 30.05 in 0.8 mi NNW 11.5 mph 24.2 mph 0.00 in Snow Light Snow
9:54 AM 30.0 °F 20.5 °F 28.0 °F 92% 30.08 in 0.8 mi NNW 11.5 mph 21.9 mph 0.00 in Snow Light Snow
10:04 AM 30.2 °F 21.3 °F 28.4 °F 93% 30.06 in 1.0 mi NNW 10.4 mph 19.6 mph 0.00 in Snow Light Snow
10:16 AM 30.2 °F 19.8 °F 28.4 °F 93% 30.06 in 0.8 mi NNW 13.8 mph 23.0 mph 0.00 in Snow Light Snow
10:44 AM 30.2 °F 20.8 °F 28.4 °F 93% 30.07 in 0.8 mi NNW 11.5 mph 21.9 mph 0.00 in Snow Light Snow
10:54 AM 30.9 °F 21.7 °F 28.0 °F 89% 30.09 in 0.8 mi NW 11.5 mph 18.4 mph 0.00 in Snow Light Snow
11:07 AM 30.2 °F 18.9 °F 28.4 °F 93% 30.07 in 1.0 mi NNW 16.1 mph 24.2 mph 0.00 in Snow Light Snow
11:18 AM 30.2 °F 19.3 °F 28.4 °F 93% 30.07 in 0.8 mi NNW 15.0 mph 23.0 mph 0.01 in Snow Light Snow
11:28 AM 30.2 °F 21.3 °F 28.4 °F 93% 30.07 in 1.0 mi NW 10.4 mph 21.9 mph 0.01 in Snow Light Snow
11:32 AM 30.2 °F 20.8 °F 28.4 °F 93% 30.07 in 0.8 mi NW 11.5 mph 21.9 mph 0.01 in Snow Light Snow
12:14 PM 32.0 °F 22.5 °F 30.2 °F 93% 30.07 in 1.0 mi NW 12.7 mph 20.7 mph 0.01 in Snow Light Snow
12:31 PM 33.8 °F 27.0 °F 28.4 °F 81% 30.07 in 2.0 mi NNW 8.1 mph 21.9 mph 0.02 in Snow Light Snow
12:44 PM 33.8 °F 23.5 °F 28.4 °F 81% 30.06 in 4.0 mi NNW 16.1 mph 23.0 mph 0.02 in Snow Light Snow
12:54 PM 34.0 °F 25.5 °F 28.9 °F 82% 30.08 in 5.0 mi NNW 11.5 mph 19.6 mph 0.03 in Snow Light Snow
1:37 PM 35.6 °F 29.9 °F 28.4 °F 75% 30.05 in 9.0 mi NNW 6.9 mph 20.7 mph 0.08 in Snow Light Snow
1:54 PM 37.0 °F 29.8 °F 28.9 °F 73% 30.06 in 10.0 mi NNW 10.4 mph 21.9 mph 0.11 in   Overcast
2:54 PM 39.9 °F 32.5 °F 28.0 °F 63% 30.08 in 10.0 mi North 12.7 mph 19.6 mph 0.11 in   Overcast
3:54 PM 41.0 °F 34.7 °F 28.9 °F 62% 30.09 in 10.0 mi NNW 10.4 mph 18.4 mph 0.01 in   Overcast
4:54 PM 41.0 °F 33.5 °F 28.0 °F 60% 30.12 in 10.0 mi NNW 13.8 mph 24.2 mph N/A   Overcast
5:54 PM 41.0 °F 34.3 °F 28.0 °F 60% 30.14 in 10.0 mi NNW 11.5 mph 23.0 mph N/A   Overcast
6:54 PM 39.0 °F 32.3 °F 27.0 °F 62% 30.17 in 10.0 mi NNW 10.4 mph 21.9 mph N/A   Scattered Clouds
7:54 PM 37.9 °F 30.9 °F 25.0 °F 60% 30.19 in 10.0 mi NNW 10.4 mph 18.4 mph N/A   Clear
8:54 PM 37.0 °F 30.4 °F 25.0 °F 62% 30.22 in 10.0 mi NNW 9.2 mph - N/A   Clear
9:54 PM 37.0 °F 29.8 °F 24.1 °F 59% 30.22 in 10.0 mi NNW 10.4 mph 19.6 mph N/A   Clear
10:54 PM 35.1 °F 30.1 °F 23.0 °F 61% 30.23 in 10.0 mi Variable 5.8 mph - N/A   Clear
11:54 PM 34.0 °F 28.0 °F 21.9 °F 61% 30.24 in 10.0 mi Variable 6.9 mph - N/A   Clear